Flag for Saudi Arabia Weather past 2 weeks in Qatif, Saudi Arabia

Now
102 °F

Clear.


Feels Like: 108 °F
Forecast: 90 / 111 °F
Wind: 3 mph from South

Location: King Fahd International Airport

Current Time: Aug 1, 2015 at 9:56:56 AM

Latest Report: Aug 1, 2015 at 9:00 AM


Visibility: 5 mi

Pressure: 29.53 "Hg

Humidity: 33%

Dew point: 68 °F

Location of QatifLocation

Historic Weather in Qatif — Graph

°F

Qatif temperature yesterday

Maximum temperature yesterday: 115 °F (at 1:00 PM)
Minimum temperature yesterday: 88 °F (at 5:00 AM)
Average temperature yesterday: 100 °F

Past Weeks' High & Low Weather Summary

 TemperatureHumidityPressure
High118 °F (Jul 29, 1:00 PM)75% (Jul 24, 1:00 AM)29.56 "Hg (Jul 24, 1:00 AM)
Low84 °F (Jul 23, 3:00 AM)5% (Jul 19, 3:00 PM)29.33 "Hg (Jul 20, 3:00 PM)
Average100 °F27%29.44 "Hg
* Reported Jul 17 8:00 AM — Aug 1 8:00 AM, Qatif, Weather by CustomWeather, © 2015

Note: Actual official high and low records may vary slightly from our data, if they occured in-between our weather recording intervals... More about our weather records

Advertising

Qatif weather history for previous 24 hours

 ConditionsComfort  
Time TempWeatherWind HumidityBarometerVisibility
8:00 AM
Sat, Aug 1
97 °FSunny.5 mph53%29.50 "Hg10 mi
7:00 AM93 °FSunny.2 mph53%29.50 "Hg10 mi
6:00 AM88 °FSunny.8 mph55%29.47 "Hg10 mi
5:00 AM90 °FClear.2 mph52%29.47 "Hg10 mi
4:00 AM90 °FClear.5 mph49%29.45 "Hg10 mi
3:00 AM91 °FClear.5 mph46%29.45 "Hg10 mi
2:00 AM90 °FClear.5 mph46%29.45 "Hg10 mi
1:00 AM93 °FClear.7 mph41%29.45 "Hg10 mi
12:00 AM95 °FClear.3 mph36%29.45 "Hg10 mi
11:00 PM
Fri, Jul 31
97 °FClear.No wind34%29.47 "Hg10 mi
10:00 PM97 °FClear.2 mph37%29.47 "Hg10 mi
9:00 PM99 °FClear.2 mph35%29.45 "Hg10 mi
8:00 PM102 °FClear.5 mph29%29.45 "Hg10 mi
7:00 PM102 °FClear.6 mph35%29.42 "Hg10 mi
6:00 PM106 °FSunny.13 mph30%29.42 "Hg10 mi
5:00 PM108 °FSunny.17 mph26%29.42 "Hg10 mi
4:00 PM108 °FSunny.18 mph25%29.42 "Hg10 mi
3:00 PM111 °FSunny.17 mph18%29.42 "Hg10 mi
2:00 PM115 °FSunny.2 mph13%29.42 "Hg10 mi
1:00 PM115 °FClear.2 mph14%29.45 "Hg5 mi
12:00 PM113 °FClear.2 mph15%29.45 "Hg5 mi
11:00 AM109 °FClear.3 mph22%29.47 "Hg4 mi
10:00 AM108 °FClear.3 mph25%29.50 "Hg4 mi
9:00 AM102 °FClear.6 mph35%29.50 "Hg4 mi
Weather by CustomWeather, © 2015

See weather overviewHow to use our weather pages